UAE568A OMDB-VOBL

Flight info

Callsign UAE568A
Flight time 3h 15m
Altitude 39000
Route ANVIX L223 TARDI N629 TOTOX P574 BBM W78 SUSIK
Aircraft A388/J-SADE2E3FGHIJ3J4J5M1RWXY/LB1D1

Departure

Time 2026-05-08 18:44
Airport Dubai International Airport (OMDB)

Arrival

Time 2026-05-08 21:59
Airport Kempegowda International Airport Bengaluru (VOBL)
Time Latitude Longitude Altitude Speed Heading
2026-05-08 17:47 25.24370 55.36925 32 ft 0 kts 31°
2026-05-08 18:30 25.24362 55.36920 26 ft 4 kts 31°
2026-05-08 18:30 25.24339 55.36905 29 ft 3 kts 31°
2026-05-08 18:31 25.24322 55.36891 32 ft 4 kts 47°
2026-05-08 18:31 25.24312 55.36871 32 ft 4 kts 79°
2026-05-08 18:31 25.24312 55.36845 32 ft 4 kts 107°
2026-05-08 18:31 25.24323 55.36822 32 ft 4 kts 122°
2026-05-08 18:32 25.24337 55.36796 32 ft 4 kts 122°
2026-05-08 18:32 25.24341 55.36790 32 ft 0 kts 122°
2026-05-08 18:36 25.24337 55.36796 32 ft 3 kts 121°
2026-05-08 18:36 25.24318 55.36831 32 ft 8 kts 121°
2026-05-08 18:36 25.24284 55.36892 32 ft 11 kts 122°
2026-05-08 18:36 25.24238 55.36973 30 ft 14 kts 122°
2026-05-08 18:37 25.24183 55.37068 29 ft 16 kts 121°
2026-05-08 18:37 25.24126 55.37178 29 ft 17 kts 122°
2026-05-08 18:37 25.24059 55.37295 29 ft 19 kts 122°
2026-05-08 18:37 25.23996 55.37404 29 ft 16 kts 121°
2026-05-08 18:38 25.23975 55.37520 31 ft 16 kts 75°
2026-05-08 18:38 25.24043 55.37618 32 ft 17 kts 37°
2026-05-08 18:38 25.24146 55.37689 26 ft 18 kts 31°
2026-05-08 18:38 25.24250 55.37760 27 ft 15 kts 31°
2026-05-08 18:39 25.24286 55.37783 27 ft 3 kts 32°
2026-05-08 18:39 25.24305 55.37797 28 ft 0 kts 33°
2026-05-08 18:41 25.24331 55.37816 28 ft 11 kts 33°
2026-05-08 18:41 25.24400 55.37866 32 ft 12 kts 33°
2026-05-08 18:41 25.24471 55.37918 35 ft 14 kts 34°
2026-05-08 18:42 25.24564 55.37990 31 ft 20 kts 35°
2026-05-08 18:42 25.24673 55.38075 32 ft 12 kts 35°
2026-05-08 18:42 25.24726 55.38116 34 ft 10 kts 26°
2026-05-08 18:42 25.24762 55.38104 35 ft 6 kts 310°
2026-05-08 18:43 25.24767 55.38096 35 ft 0 kts 302°
2026-05-08 18:43 25.24798 55.38041 35 ft 32 kts 301°
2026-05-08 18:43 25.25064 55.37564 37 ft 111 kts 301°
2026-05-08 18:43 25.25566 55.36661 34 ft 164 kts 301°
2026-05-08 18:44 25.26208 55.35484 151 ft 185 kts 300°
2026-05-08 18:44 25.26855 55.34325 801 ft 171 kts 300°
2026-05-08 18:44 25.27452 55.33256 1504 ft 157 kts 301°
2026-05-08 18:44 25.28024 55.32230 1969 ft 162 kts 300°
2026-05-08 18:45 25.28642 55.31116 2210 ft 175 kts 301°
2026-05-08 18:45 25.29183 55.30058 2526 ft 177 kts 289°
2026-05-08 18:45 25.29243 55.28704 2848 ft 182 kts 256°
2026-05-08 18:45 25.28698 55.27413 3127 ft 190 kts 246°
2026-05-08 18:46 25.28102 55.26070 3331 ft 198 kts 247°
2026-05-08 18:46 25.27513 55.24688 3620 ft 199 kts 247°
2026-05-08 18:46 25.26932 55.23312 3906 ft 202 kts 247°
2026-05-08 18:46 25.26336 55.21901 4188 ft 204 kts 246°
2026-05-08 18:47 25.25732 55.20472 4393 ft 210 kts 246°
2026-05-08 18:47 25.25092 55.18960 4466 ft 228 kts 246°
2026-05-08 18:47 25.24150 55.17488 4844 ft 242 kts 220°
2026-05-08 18:47 25.22771 55.16750 5414 ft 248 kts 191°
2026-05-08 18:48 25.21047 55.16741 6144 ft 252 kts 176°
2026-05-08 18:48 25.19292 55.17126 6621 ft 263 kts 155°
2026-05-08 18:48 25.17860 55.18374 7295 ft 267 kts 127°
2026-05-08 18:48 25.16932 55.20169 7855 ft 277 kts 118°
2026-05-08 18:49 25.16038 55.22105 8156 ft 294 kts 118°
2026-05-08 18:49 25.15099 55.24130 8805 ft 298 kts 118°
2026-05-08 18:49 25.14138 55.26167 9504 ft 301 kts 119°
2026-05-08 18:49 25.13158 55.28221 10144 ft 303 kts 119°
2026-05-08 18:50 25.12174 55.30270 10854 ft 303 kts 120°
2026-05-08 18:50 25.11182 55.32331 11563 ft 304 kts 119°
2026-05-08 18:50 25.10246 55.34425 12244 ft 306 kts 115°
2026-05-08 18:50 25.09373 55.36571 12950 ft 307 kts 115°
2026-05-08 18:51 25.08490 55.38719 13646 ft 308 kts 115°
2026-05-08 18:51 25.07598 55.40884 14217 ft 311 kts 115°
2026-05-08 18:51 25.06711 55.43052 14641 ft 320 kts 114°
2026-05-08 18:51 25.05810 55.45374 14793 ft 338 kts 113°
2026-05-08 18:52 25.04880 55.47822 14941 ft 355 kts 113°
2026-05-08 18:52 25.03901 55.50395 15198 ft 368 kts 113°
2026-05-08 18:52 25.02899 55.53014 15739 ft 372 kts 113°
2026-05-08 18:52 25.01845 55.55623 16275 ft 375 kts 118°
2026-05-08 18:53 25.00527 55.58114 16812 ft 378 kts 122°
2026-05-08 18:53 24.99163 55.60608 17334 ft 382 kts 121°
2026-05-08 18:53 24.97795 55.63136 17857 ft 385 kts 121°
2026-05-08 18:53 24.96421 55.65684 18340 ft 389 kts 121°
2026-05-08 18:54 24.95053 55.68218 18766 ft 391 kts 122°
2026-05-08 18:54 24.93595 55.70760 19225 ft 393 kts 127°
2026-05-08 18:54 24.91968 55.73189 19654 ft 396 kts 127°
2026-05-08 18:54 24.90334 55.75642 20070 ft 399 kts 127°
2026-05-08 18:55 24.87047 55.80603 20947 ft 404 kts 127°
2026-05-08 18:55 24.85387 55.83107 21364 ft 406 kts 128°
2026-05-08 18:55 24.83711 55.85633 21779 ft 409 kts 128°
2026-05-08 18:56 24.82015 55.88157 22186 ft 412 kts 128°
2026-05-08 18:56 24.80316 55.90657 22611 ft 414 kts 128°
2026-05-08 18:56 24.78565 55.93175 22995 ft 416 kts 132°
2026-05-08 18:56 24.76571 55.95488 23400 ft 417 kts 139°
2026-05-08 18:57 24.74428 55.97652 23718 ft 420 kts 139°
2026-05-08 18:57 24.73007 55.99104 23948 ft 422 kts 139°
2026-05-08 18:57 24.70131 56.02063 24395 ft 425 kts 139°
2026-05-08 18:57 24.67968 56.04291 24719 ft 428 kts 139°
2026-05-08 18:58 24.65790 56.06536 25041 ft 431 kts 139°
2026-05-08 18:58 24.63597 56.08797 25372 ft 433 kts 139°
2026-05-08 18:58 24.61428 56.11031 25702 ft 436 kts 139°
2026-05-08 18:58 24.59201 56.13322 26038 ft 439 kts 139°
2026-05-08 18:59 24.56994 56.15647 26392 ft 443 kts 136°
2026-05-08 18:59 24.54961 56.18205 26741 ft 446 kts 133°
2026-05-08 18:59 24.52937 56.20807 27063 ft 450 kts 133°
2026-05-08 18:59 24.50887 56.23419 27437 ft 453 kts 133°
2026-05-08 19:00 24.49521 56.25156 27691 ft 455 kts 133°
2026-05-08 19:00 24.46744 56.28687 28192 ft 459 kts 133°
2026-05-08 19:00 24.44651 56.31348 28584 ft 462 kts 134°
2026-05-08 19:00 24.42568 56.33994 28959 ft 466 kts 134°
2026-05-08 19:01 24.40442 56.36695 29352 ft 470 kts 134°
2026-05-08 19:01 24.38293 56.39423 29747 ft 474 kts 134°
2026-05-08 19:01 24.36132 56.42165 30124 ft 477 kts 134°
2026-05-08 19:01 24.33955 56.44927 30555 ft 479 kts 134°
2026-05-08 19:02 24.31771 56.47696 30964 ft 481 kts 134°
2026-05-08 19:02 24.29605 56.50503 31345 ft 485 kts 130°
2026-05-08 19:02 24.27608 56.53509 31749 ft 489 kts 128°
2026-05-08 19:02 24.25615 56.56533 32152 ft 491 kts 129°
2026-05-08 19:03 24.23602 56.59570 32559 ft 494 kts 129°
2026-05-08 19:03 24.21578 56.62617 32970 ft 496 kts 129°
2026-05-08 19:03 24.19542 56.65678 33373 ft 498 kts 129°
2026-05-08 19:03 24.17495 56.68757 33780 ft 501 kts 129°
2026-05-08 19:04 24.15441 56.71843 34122 ft 503 kts 129°
2026-05-08 19:04 24.13399 56.74909 34490 ft 505 kts 129°
2026-05-08 19:04 24.11334 56.78011 34943 ft 505 kts 129°
2026-05-08 19:04 24.09266 56.81113 35448 ft 503 kts 129°
2026-05-08 19:05 24.07208 56.84201 35958 ft 501 kts 129°
2026-05-08 19:05 24.05156 56.87275 36444 ft 500 kts 129°
2026-05-08 19:05 24.03107 56.90344 36935 ft 498 kts 129°
2026-05-08 19:05 24.01065 56.93397 37403 ft 497 kts 129°
2026-05-08 19:06 23.99023 56.96447 37863 ft 496 kts 129°
2026-05-08 19:06 23.96989 56.99483 38318 ft 495 kts 129°
2026-05-08 19:06 23.94982 57.02478 38698 ft 494 kts 129°
2026-05-08 19:06 23.92935 57.05528 38806 ft 500 kts 129°
2026-05-08 19:07 23.90895 57.08568 38804 ft 495 kts 129°
2026-05-08 19:07 23.86820 57.14638 38811 ft 497 kts 129°
2026-05-08 19:08 23.82780 57.20648 38810 ft 497 kts 129°
2026-05-08 19:08 23.78692 57.26725 38804 ft 497 kts 129°
2026-05-08 19:09 23.74628 57.32757 38814 ft 496 kts 129°
2026-05-08 19:09 23.70514 57.38801 38809 ft 495 kts 131°
2026-05-08 19:10 23.66211 57.44671 38813 ft 495 kts 131°
2026-05-08 19:10 23.61909 57.50525 38820 ft 495 kts 131°
2026-05-08 19:11 23.57656 57.56352 38828 ft 495 kts 131°
2026-05-08 19:11 23.53375 57.62224 38831 ft 495 kts 131°
2026-05-08 19:12 23.49088 57.68098 38839 ft 495 kts 131°
2026-05-08 19:12 23.44795 57.73968 38853 ft 496 kts 131°
2026-05-08 19:13 23.40492 57.79841 38857 ft 496 kts 131°
2026-05-08 19:13 23.36190 57.85707 38857 ft 496 kts 131°
2026-05-08 19:14 23.31912 57.91534 38847 ft 496 kts 131°
2026-05-08 19:14 23.27604 57.97395 38844 ft 496 kts 131°
2026-05-08 19:15 23.23399 58.03344 38839 ft 497 kts 126°
2026-05-08 19:15 23.19501 58.09560 38840 ft 497 kts 127°
2026-05-08 19:16 23.15643 58.15668 38843 ft 497 kts 127°
2026-05-08 19:16 23.11724 58.21860 38837 ft 497 kts 127°
2026-05-08 19:17 23.07805 58.28046 38839 ft 497 kts 127°
2026-05-08 19:17 23.03959 58.34277 38842 ft 498 kts 123°
2026-05-08 19:18 23.00928 58.41006 38837 ft 501 kts 113°
2026-05-08 19:18 22.98789 58.48225 38835 ft 503 kts 109°
2026-05-08 19:19 22.96759 58.55483 38837 ft 503 kts 109°
2026-05-08 19:19 22.94718 58.62732 38832 ft 502 kts 109°
2026-05-08 19:20 22.92674 58.69985 38832 ft 502 kts 109°
2026-05-08 19:20 22.90645 58.77175 38830 ft 503 kts 109°
2026-05-08 19:21 22.88595 58.84429 38830 ft 503 kts 109°
2026-05-08 19:21 22.86543 58.91675 38826 ft 503 kts 109°
2026-05-08 19:22 22.84499 58.98877 38828 ft 503 kts 109°
2026-05-08 19:22 22.82439 59.06122 38822 ft 503 kts 109°
2026-05-08 19:23 22.80377 59.13358 38812 ft 503 kts 109°
2026-05-08 19:23 22.78313 59.20594 38805 ft 502 kts 109°
2026-05-08 19:24 22.76245 59.27827 38799 ft 503 kts 109°
2026-05-08 19:24 22.74187 59.35012 38787 ft 503 kts 109°
2026-05-08 19:25 22.72111 59.42244 38781 ft 503 kts 109°
2026-05-08 19:25 22.70034 59.49468 38770 ft 503 kts 109°
2026-05-08 19:26 22.67952 59.56695 38764 ft 502 kts 109°
2026-05-08 19:26 22.65883 59.63866 38756 ft 502 kts 109°
2026-05-08 19:27 22.63795 59.71087 38759 ft 502 kts 109°
2026-05-08 19:27 22.61709 59.78293 38765 ft 502 kts 109°
2026-05-08 19:28 22.59615 59.85505 38767 ft 502 kts 109°
2026-05-08 19:28 22.57525 59.92705 38770 ft 502 kts 109°
2026-05-08 19:29 22.55431 59.99909 38775 ft 502 kts 109°
2026-05-08 19:29 22.53349 60.07056 38781 ft 501 kts 109°
2026-05-08 19:30 22.51249 60.14248 38779 ft 501 kts 109°
2026-05-08 19:30 22.49161 60.21387 38791 ft 501 kts 109°
2026-05-08 19:31 22.47055 60.28575 38779 ft 502 kts 109°
2026-05-08 19:31 22.44957 60.35721 38777 ft 502 kts 109°
2026-05-08 19:32 22.42843 60.42910 38786 ft 502 kts 109°
2026-05-08 19:32 22.40724 60.50101 38793 ft 502 kts 109°
2026-05-08 19:33 22.38598 60.57304 38796 ft 503 kts 109°
2026-05-08 19:33 22.36485 60.64451 38800 ft 503 kts 109°
2026-05-08 19:34 22.34355 60.71640 38799 ft 503 kts 109°
2026-05-08 19:34 22.32220 60.78835 38802 ft 503 kts 109°
2026-05-08 19:35 22.30084 60.86020 38802 ft 502 kts 109°
2026-05-08 19:35 22.27945 60.93204 38801 ft 502 kts 109°
2026-05-08 19:36 22.25819 61.00327 38799 ft 502 kts 109°
2026-05-08 19:36 22.23674 61.07504 38792 ft 502 kts 109°
2026-05-08 19:37 22.21529 61.14670 38803 ft 502 kts 109°
2026-05-08 19:37 22.19379 61.21836 38807 ft 502 kts 109°
2026-05-08 19:38 22.17224 61.29008 38797 ft 502 kts 109°
2026-05-08 19:38 22.15084 61.36119 38807 ft 502 kts 109°
2026-05-08 19:39 22.12924 61.43283 38810 ft 502 kts 109°
2026-05-08 19:39 22.10763 61.50440 38808 ft 502 kts 109°
2026-05-08 19:40 22.08599 61.57590 38810 ft 502 kts 109°
2026-05-08 19:40 22.06796 61.63538 38813 ft 502 kts 109°
2026-05-08 19:41 22.04275 61.71845 38814 ft 502 kts 109°
2026-05-08 19:41 22.02454 61.77833 38806 ft 502 kts 110°
2026-05-08 19:42 21.99925 61.86134 38807 ft 502 kts 110°
2026-05-08 19:42 21.98112 61.92077 38813 ft 502 kts 109°
2026-05-08 19:43 21.95929 61.99219 38814 ft 502 kts 109°
2026-05-08 19:43 21.93742 62.06362 38813 ft 502 kts 109°
2026-05-08 19:44 21.91552 62.13501 38818 ft 502 kts 110°
2026-05-08 19:44 21.89356 62.20648 38818 ft 503 kts 109°
2026-05-08 19:45 21.87171 62.27750 38823 ft 503 kts 110°
2026-05-08 19:45 21.84964 62.34887 38820 ft 503 kts 111°
2026-05-08 19:46 21.82150 62.41758 38821 ft 501 kts 119°
2026-05-08 19:46 21.77352 62.51755 38828 ft 501 kts 118°
2026-05-08 19:47 21.74169 62.58429 38828 ft 502 kts 118°
2026-05-08 19:47 21.70999 62.65056 38828 ft 502 kts 118°
2026-05-08 19:48 21.67800 62.71729 38831 ft 502 kts 118°
2026-05-08 19:48 21.64601 62.78396 38829 ft 502 kts 118°
2026-05-08 19:49 21.61399 62.85058 38830 ft 502 kts 118°
2026-05-08 19:49 21.58212 62.91682 38834 ft 502 kts 118°
2026-05-08 19:50 21.55001 62.98348 38838 ft 502 kts 118°
2026-05-08 19:50 21.51790 63.05004 38840 ft 502 kts 118°
2026-05-08 19:51 21.48575 63.11662 38832 ft 502 kts 118°
2026-05-08 19:51 21.45359 63.18311 38834 ft 502 kts 118°
2026-05-08 19:52 21.42159 63.24921 38838 ft 502 kts 118°
2026-05-08 19:52 21.38935 63.31571 38836 ft 502 kts 118°
2026-05-08 19:53 21.35708 63.38219 38841 ft 503 kts 118°
2026-05-08 19:53 21.32477 63.44867 38836 ft 503 kts 118°
2026-05-08 19:54 21.29262 63.51474 38838 ft 503 kts 118°
2026-05-08 19:54 21.26024 63.58120 38847 ft 503 kts 118°
2026-05-08 19:55 21.22779 63.64773 38848 ft 504 kts 118°
2026-05-08 19:55 21.19529 63.71427 38849 ft 504 kts 118°
2026-05-08 19:56 21.16273 63.78083 38847 ft 504 kts 118°
2026-05-08 19:56 21.13040 63.84686 38848 ft 504 kts 118°
2026-05-08 19:57 21.09778 63.91341 38848 ft 504 kts 118°
2026-05-08 19:57 21.06516 63.97987 38847 ft 505 kts 118°
2026-05-08 19:58 21.03246 64.04640 38852 ft 505 kts 118°
2026-05-08 19:58 20.99997 64.11242 38853 ft 505 kts 118°
2026-05-08 19:59 20.96722 64.17889 38854 ft 505 kts 118°
2026-05-08 19:59 20.93449 64.24526 38854 ft 505 kts 118°
2026-05-08 20:00 20.90169 64.31166 38853 ft 505 kts 118°
2026-05-08 20:00 20.86888 64.37803 38850 ft 504 kts 118°
2026-05-08 20:01 20.83630 64.44384 38856 ft 504 kts 118°
2026-05-08 20:01 20.80345 64.51012 38852 ft 504 kts 118°
2026-05-08 20:02 20.77058 64.57634 38849 ft 504 kts 118°
2026-05-08 20:02 20.73773 64.64245 38854 ft 504 kts 118°
2026-05-08 20:03 20.70501 64.70823 38860 ft 504 kts 118°
2026-05-08 20:03 20.67210 64.77431 38855 ft 504 kts 118°
2026-05-08 20:04 20.63914 64.84041 38859 ft 504 kts 118°
2026-05-08 20:04 20.60618 64.90643 38862 ft 504 kts 118°
2026-05-08 20:05 20.57344 64.97197 38858 ft 504 kts 118°
2026-05-08 20:05 20.54060 65.03797 38862 ft 504 kts 118°
2026-05-08 20:06 20.50818 65.10423 38860 ft 503 kts 118°
2026-05-08 20:06 20.47581 65.17036 38859 ft 503 kts 118°
2026-05-08 20:07 20.44335 65.23647 38861 ft 503 kts 118°
2026-05-08 20:07 20.41105 65.30212 38848 ft 503 kts 118°
2026-05-08 20:08 20.37856 65.36807 38844 ft 503 kts 118°
2026-05-08 20:08 20.34600 65.43406 38847 ft 503 kts 118°
2026-05-08 20:09 20.31347 65.49994 38847 ft 503 kts 118°
2026-05-08 20:09 20.28090 65.56582 38846 ft 503 kts 118°
2026-05-08 20:10 20.24852 65.63124 38848 ft 502 kts 118°
2026-05-08 20:10 20.21590 65.69706 38866 ft 502 kts 118°
2026-05-08 20:11 20.18330 65.76278 38868 ft 502 kts 118°
2026-05-08 20:11 20.15068 65.82844 38869 ft 502 kts 118°
2026-05-08 20:12 20.11806 65.89404 38872 ft 501 kts 118°
2026-05-08 20:12 20.08562 65.95920 38850 ft 501 kts 118°
2026-05-08 20:13 20.05296 66.02473 38857 ft 501 kts 118°
2026-05-08 20:13 20.02030 66.09017 38857 ft 501 kts 118°
2026-05-08 20:14 19.98760 66.15561 38856 ft 501 kts 118°
2026-05-08 20:14 19.95492 66.22095 38856 ft 501 kts 118°
2026-05-08 20:15 19.92241 66.28587 38862 ft 501 kts 118°
2026-05-08 20:15 19.88967 66.35118 38862 ft 500 kts 118°
2026-05-08 20:16 19.85695 66.41637 38862 ft 500 kts 118°
2026-05-08 20:16 19.82418 66.48159 38878 ft 500 kts 118°
2026-05-08 20:17 19.79143 66.54670 38859 ft 500 kts 118°
2026-05-08 20:17 19.75885 66.61140 38880 ft 500 kts 118°
2026-05-08 20:18 19.72605 66.67645 38881 ft 500 kts 118°
2026-05-08 20:18 19.69324 66.74146 38870 ft 500 kts 118°
2026-05-08 20:19 19.66040 66.80646 38868 ft 500 kts 118°
2026-05-08 20:19 19.62755 66.87139 38862 ft 500 kts 118°
2026-05-08 20:20 19.59468 66.93631 38869 ft 499 kts 118°
2026-05-08 20:20 19.56204 67.00069 38867 ft 499 kts 118°
2026-05-08 20:21 19.52911 67.06555 38864 ft 499 kts 118°
2026-05-08 20:21 19.49619 67.13035 38864 ft 500 kts 118°
2026-05-08 20:22 19.46322 67.19517 38868 ft 500 kts 118°
2026-05-08 20:22 19.43019 67.26002 38859 ft 500 kts 118°
2026-05-08 20:23 19.39737 67.32440 38864 ft 500 kts 118°
2026-05-08 20:23 19.36429 67.38921 38862 ft 500 kts 118°
2026-05-08 20:24 19.33118 67.45402 38864 ft 501 kts 118°
2026-05-08 20:24 19.29800 67.51888 38864 ft 501 kts 118°
2026-05-08 20:25 19.26481 67.58371 38865 ft 501 kts 118°
2026-05-08 20:25 19.23176 67.64818 38863 ft 502 kts 118°
2026-05-08 20:26 19.19847 67.71306 38866 ft 502 kts 119°
2026-05-08 20:26 19.16514 67.77793 38862 ft 502 kts 119°
2026-05-08 20:27 19.13172 67.84292 38858 ft 503 kts 119°
2026-05-08 20:27 19.09852 67.90741 38859 ft 503 kts 119°
2026-05-08 20:28 19.06505 67.97240 38853 ft 503 kts 119°
2026-05-08 20:28 19.03174 68.03742 38851 ft 503 kts 118°
2026-05-08 20:29 18.99894 68.10281 38854 ft 504 kts 118°
2026-05-08 20:29 18.96604 68.16825 38847 ft 504 kts 118°
2026-05-08 20:30 18.93307 68.23364 38847 ft 504 kts 118°
2026-05-08 20:30 18.90029 68.29854 38856 ft 505 kts 118°
2026-05-08 20:31 18.86722 68.36392 38847 ft 505 kts 118°
2026-05-08 20:31 18.83409 68.42937 38842 ft 505 kts 118°
2026-05-08 20:32 18.80097 68.49474 38859 ft 505 kts 118°
2026-05-08 20:32 18.76805 68.55963 38844 ft 505 kts 118°
2026-05-08 20:33 18.73485 68.62501 38842 ft 505 kts 119°
2026-05-08 20:33 18.70164 68.69033 38842 ft 505 kts 119°
2026-05-08 20:34 18.66843 68.75559 38842 ft 505 kts 119°
2026-05-08 20:35 18.61871 68.85314 38842 ft 505 kts 119°
2026-05-08 20:35 18.58541 68.91841 38837 ft 506 kts 119°
2026-05-08 20:36 18.55209 68.98363 38839 ft 506 kts 119°
2026-05-08 20:36 18.51871 69.04890 38838 ft 506 kts 119°
2026-05-08 20:37 18.48558 69.11361 38838 ft 506 kts 119°
2026-05-08 20:37 18.45216 69.17883 38832 ft 506 kts 119°
2026-05-08 20:38 18.41873 69.24401 38829 ft 506 kts 119°
2026-05-08 20:38 18.38526 69.30920 38826 ft 506 kts 119°
2026-05-08 20:39 18.35416 69.37572 38830 ft 507 kts 116°
2026-05-08 20:39 18.32405 69.44232 38832 ft 507 kts 116°
2026-05-08 20:40 18.29339 69.50906 38830 ft 507 kts 116°
2026-05-08 20:40 18.26254 69.57575 38830 ft 507 kts 116°
2026-05-08 20:41 18.23162 69.64248 38830 ft 507 kts 116°
2026-05-08 20:41 18.20091 69.70870 38828 ft 507 kts 116°
2026-05-08 20:42 18.16997 69.77536 38830 ft 507 kts 117°
2026-05-08 20:42 18.13902 69.84195 38829 ft 507 kts 117°
2026-05-08 20:43 18.10799 69.90865 38828 ft 507 kts 117°
2026-05-08 20:43 18.07699 69.97523 38830 ft 507 kts 117°
2026-05-08 20:44 18.04596 70.04178 38831 ft 507 kts 117°
2026-05-08 20:44 18.01510 70.10788 38832 ft 507 kts 117°
2026-05-08 20:45 17.98401 70.17443 38830 ft 507 kts 117°
2026-05-08 20:45 17.95291 70.24091 38834 ft 507 kts 117°
2026-05-08 20:46 17.92177 70.30741 38828 ft 507 kts 117°
2026-05-08 20:46 17.89084 70.37340 38832 ft 507 kts 117°
2026-05-08 20:47 17.85968 70.43981 38828 ft 507 kts 117°
2026-05-08 20:47 17.82849 70.50619 38832 ft 507 kts 117°
2026-05-08 20:48 17.79725 70.57263 38828 ft 507 kts 117°
2026-05-08 20:48 17.76602 70.63891 38831 ft 507 kts 117°
2026-05-08 20:49 17.73473 70.70518 38831 ft 507 kts 117°
2026-05-08 20:49 17.70363 70.77099 38829 ft 507 kts 117°
2026-05-08 20:50 17.67230 70.83725 38827 ft 507 kts 117°
2026-05-08 20:50 17.64094 70.90349 38829 ft 507 kts 117°
2026-05-08 20:51 17.60961 70.96958 38828 ft 507 kts 117°
2026-05-08 20:51 17.57822 71.03576 38823 ft 507 kts 117°
2026-05-08 20:52 17.54703 71.10144 38821 ft 507 kts 117°
2026-05-08 20:52 17.51561 71.16752 38821 ft 507 kts 117°
2026-05-08 20:53 17.48417 71.23359 38818 ft 507 kts 117°
2026-05-08 20:53 17.45269 71.29966 38820 ft 507 kts 117°
2026-05-08 20:54 17.42123 71.36562 38817 ft 507 kts 117°
2026-05-08 20:54 17.38995 71.43115 38817 ft 507 kts 117°
2026-05-08 20:55 17.35842 71.49713 38820 ft 506 kts 117°
2026-05-08 20:55 17.32689 71.56303 38817 ft 506 kts 117°
2026-05-08 20:56 17.29531 71.62898 38816 ft 506 kts 117°
2026-05-08 20:56 17.26396 71.69439 38820 ft 506 kts 117°
2026-05-08 20:57 17.23241 71.76014 38812 ft 506 kts 117°
2026-05-08 20:57 17.20078 71.82599 38811 ft 506 kts 117°
2026-05-08 20:58 17.16914 71.89179 38815 ft 506 kts 117°
2026-05-08 20:58 17.13747 71.95758 38811 ft 507 kts 117°
2026-05-08 20:59 17.10600 72.02292 38813 ft 507 kts 117°
2026-05-08 20:59 17.07441 72.08883 38812 ft 507 kts 116°
2026-05-08 21:00 17.04349 72.15498 38816 ft 507 kts 116°
2026-05-08 21:00 17.01253 72.22107 38814 ft 507 kts 116°
2026-05-08 21:01 16.98166 72.28673 38806 ft 507 kts 116°
2026-05-08 21:01 16.95055 72.35278 38812 ft 507 kts 117°
2026-05-08 21:02 16.91940 72.41885 38809 ft 507 kts 117°
2026-05-08 21:02 16.88826 72.48482 38806 ft 507 kts 117°
2026-05-08 21:03 16.85707 72.55086 38807 ft 507 kts 117°
2026-05-08 21:03 16.82608 72.61639 38804 ft 507 kts 117°
2026-05-08 21:04 16.79484 72.68238 38801 ft 507 kts 117°
2026-05-08 21:04 16.76358 72.74837 38800 ft 507 kts 117°
2026-05-08 21:05 16.73233 72.81426 38802 ft 507 kts 117°
2026-05-08 21:05 16.70122 72.87977 38797 ft 507 kts 117°
2026-05-08 21:06 16.66990 72.94568 38793 ft 507 kts 117°
2026-05-08 21:06 16.63859 73.01149 38794 ft 507 kts 117°
2026-05-08 21:07 16.60727 73.07727 38791 ft 507 kts 117°
2026-05-08 21:07 16.57574 73.14287 38792 ft 506 kts 118°
2026-05-08 21:08 16.54358 73.20756 38809 ft 506 kts 118°
2026-05-08 21:08 16.51126 73.27262 38812 ft 505 kts 118°
2026-05-08 21:09 16.47903 73.33765 38812 ft 505 kts 117°
2026-05-08 21:09 16.44684 73.40261 38814 ft 504 kts 117°
2026-05-08 21:10 16.41486 73.46707 38815 ft 504 kts 117°
2026-05-08 21:10 16.38271 73.53181 38810 ft 503 kts 118°
2026-05-08 21:11 16.35072 73.59666 38815 ft 503 kts 117°
2026-05-08 21:11 16.31954 73.66179 38824 ft 503 kts 117°
2026-05-08 21:12 16.28828 73.72691 38827 ft 502 kts 117°
2026-05-08 21:12 16.25695 73.79191 38825 ft 502 kts 117°
2026-05-08 21:13 16.22581 73.85640 38827 ft 502 kts 117°
2026-05-08 21:13 16.19443 73.92137 38833 ft 502 kts 117°
2026-05-08 21:14 16.16322 73.98623 38840 ft 502 kts 117°
2026-05-08 21:14 16.13196 74.05118 38843 ft 502 kts 117°
2026-05-08 21:15 16.10088 74.11566 38849 ft 502 kts 117°
2026-05-08 21:15 16.06960 74.18049 38854 ft 502 kts 117°
2026-05-08 21:16 16.03830 74.24529 38860 ft 502 kts 117°
2026-05-08 21:16 16.00699 74.31005 38863 ft 501 kts 117°
2026-05-08 21:17 15.97590 74.37431 38864 ft 501 kts 117°
2026-05-08 21:17 15.94455 74.43904 38867 ft 501 kts 117°
2026-05-08 21:18 15.91322 74.50365 38865 ft 501 kts 117°
2026-05-08 21:18 15.88173 74.56830 38859 ft 501 kts 119°
2026-05-08 21:19 15.84409 74.62895 38859 ft 499 kts 129°
2026-05-08 21:19 15.79830 74.68235 38852 ft 498 kts 135°
2026-05-08 21:20 15.75007 74.73392 38852 ft 498 kts 135°
2026-05-08 21:20 15.70191 74.78561 38855 ft 498 kts 135°
2026-05-08 21:21 15.65367 74.83730 38858 ft 498 kts 135°
2026-05-08 21:21 15.60553 74.88881 38859 ft 498 kts 135°
2026-05-08 21:22 15.55763 74.94002 38874 ft 497 kts 135°
2026-05-08 21:22 15.50943 74.99151 38877 ft 497 kts 136°
2026-05-08 21:23 15.46135 75.04285 38878 ft 496 kts 136°
2026-05-08 21:23 15.41321 75.09421 38875 ft 496 kts 136°
2026-05-08 21:24 15.36518 75.14540 38870 ft 495 kts 136°
2026-05-08 21:24 15.31749 75.19622 38868 ft 495 kts 136°
2026-05-08 21:25 15.26956 75.24725 38871 ft 494 kts 136°
2026-05-08 21:25 15.22168 75.29818 38875 ft 493 kts 136°
2026-05-08 21:26 15.17386 75.34901 38859 ft 493 kts 136°
2026-05-08 21:26 15.12603 75.39983 38864 ft 492 kts 136°
2026-05-08 21:27 15.07860 75.45019 38861 ft 492 kts 136°
2026-05-08 21:27 15.03086 75.50084 38861 ft 491 kts 136°
2026-05-08 21:28 14.98311 75.55145 38858 ft 491 kts 136°
2026-05-08 21:28 14.93538 75.60202 38862 ft 491 kts 136°
2026-05-08 21:29 14.88770 75.65251 38861 ft 491 kts 136°
2026-05-08 21:29 14.84000 75.70298 38861 ft 491 kts 136°
2026-05-08 21:30 14.79260 75.75310 38860 ft 490 kts 136°
2026-05-08 21:30 14.74494 75.80346 38866 ft 490 kts 136°
2026-05-08 21:31 14.69722 75.85384 38870 ft 490 kts 136°
2026-05-08 21:31 14.64949 75.90421 38873 ft 490 kts 136°
2026-05-08 21:32 14.60219 75.95409 38878 ft 490 kts 136°
2026-05-08 21:32 14.55451 76.00434 38878 ft 490 kts 136°
2026-05-08 21:33 14.50685 76.05452 38886 ft 489 kts 136°
2026-05-08 21:33 14.45936 76.10452 38687 ft 484 kts 136°
2026-05-08 21:33 14.43605 76.12937 38459 ft 482 kts 132°
2026-05-08 21:34 14.41579 76.15694 38191 ft 484 kts 123°
2026-05-08 21:34 14.39996 76.18767 37932 ft 487 kts 114°
2026-05-08 21:34 14.38891 76.22030 37544 ft 490 kts 105°
2026-05-08 21:34 14.38122 76.25471 36768 ft 494 kts 104°
2026-05-08 21:35 14.37361 76.28922 35725 ft 501 kts 104°
2026-05-08 21:35 14.36571 76.32463 34684 ft 509 kts 104°
2026-05-08 21:35 14.35772 76.36023 33871 ft 510 kts 103°
2026-05-08 21:35 14.34970 76.39594 32871 ft 513 kts 103°
2026-05-08 21:36 14.34167 76.43161 32202 ft 509 kts 103°
2026-05-08 21:36 14.33373 76.46690 31796 ft 499 kts 103°
2026-05-08 21:36 14.32596 76.50143 31262 ft 492 kts 103°
2026-05-08 21:36 14.31819 76.53587 30477 ft 493 kts 103°
2026-05-08 21:37 14.31056 76.56970 29958 ft 488 kts 103°
2026-05-08 21:37 14.30292 76.60353 29364 ft 482 kts 103°
2026-05-08 21:37 14.29537 76.63696 28765 ft 476 kts 103°
2026-05-08 21:37 14.28789 76.67005 28157 ft 471 kts 103°
2026-05-08 21:38 14.28050 76.70273 27567 ft 467 kts 103°
2026-05-08 21:38 14.27323 76.73485 26974 ft 462 kts 102°
2026-05-08 21:38 14.26587 76.76731 26372 ft 458 kts 102°
2026-05-08 21:38 14.25865 76.79918 25786 ft 454 kts 102°
2026-05-08 21:39 14.25150 76.83071 25185 ft 451 kts 102°
2026-05-08 21:39 14.24448 76.86164 24618 ft 447 kts 102°
2026-05-08 21:39 14.23744 76.89265 24034 ft 444 kts 102°
2026-05-08 21:39 14.23040 76.92360 23351 ft 443 kts 102°
2026-05-08 21:40 14.22162 76.95376 22798 ft 438 kts 111°
2026-05-08 21:40 14.20680 76.98098 22226 ft 435 kts 125°
2026-05-08 21:40 14.18636 77.00363 21655 ft 431 kts 139°
2026-05-08 21:41 14.13575 77.03568 20498 ft 423 kts 151°
2026-05-08 21:41 14.11009 77.05029 19923 ft 419 kts 149°
2026-05-08 21:41 14.08496 77.06539 19356 ft 416 kts 148°
2026-05-08 21:41 14.06071 77.08061 18798 ft 413 kts 147°
2026-05-08 21:42 14.03646 77.09621 18223 ft 410 kts 147°
2026-05-08 21:42 14.01241 77.11182 17596 ft 406 kts 147°
2026-05-08 21:42 13.98876 77.12723 17053 ft 400 kts 147°
2026-05-08 21:42 13.96536 77.14247 16495 ft 395 kts 147°
2026-05-08 21:43 13.94223 77.15751 15935 ft 391 kts 146°
2026-05-08 21:43 13.91938 77.17237 15395 ft 386 kts 146°
2026-05-08 21:43 13.89708 77.18685 14858 ft 382 kts 146°
2026-05-08 21:43 13.87481 77.20132 14474 ft 374 kts 146°
2026-05-08 21:44 13.85324 77.21531 14323 ft 359 kts 146°
2026-05-08 21:44 13.83250 77.22876 14157 ft 345 kts 146°
2026-05-08 21:44 13.81268 77.24161 13986 ft 327 kts 146°
2026-05-08 21:44 13.79395 77.25376 13851 ft 310 kts 145°
2026-05-08 21:45 13.77620 77.26527 13719 ft 293 kts 145°
2026-05-08 21:45 13.76499 77.27254 13616 ft 282 kts 145°
2026-05-08 21:45 13.74885 77.28301 13358 ft 271 kts 145°
2026-05-08 21:45 13.73292 77.29337 12824 ft 271 kts 145°
2026-05-08 21:46 13.71704 77.30370 12376 ft 269 kts 145°
2026-05-08 21:46 13.69624 77.31721 11810 ft 266 kts 145°
2026-05-08 21:46 13.68068 77.32730 11394 ft 264 kts 145°
2026-05-08 21:46 13.66521 77.33733 10976 ft 262 kts 145°
2026-05-08 21:47 13.65502 77.34393 10726 ft 260 kts 145°
2026-05-08 21:47 13.63975 77.35383 10390 ft 258 kts 145°
2026-05-08 21:47 13.62488 77.36345 10323 ft 248 kts 145°
2026-05-08 21:47 13.61050 77.37275 10228 ft 241 kts 144°
2026-05-08 21:48 13.59652 77.38180 10116 ft 234 kts 144°
2026-05-08 21:48 13.58263 77.39022 10013 ft 233 kts 152°
2026-05-08 21:48 13.56232 77.39839 9737 ft 237 kts 156°
2026-05-08 21:48 13.55191 77.40241 9594 ft 235 kts 156°
2026-05-08 21:49 13.53659 77.40843 9373 ft 240 kts 156°
2026-05-08 21:49 13.52104 77.41460 9195 ft 249 kts 156°
2026-05-08 21:49 13.50475 77.42105 8968 ft 251 kts 156°
2026-05-08 21:49 13.48851 77.42744 8777 ft 248 kts 156°
2026-05-08 21:50 13.47242 77.43378 8554 ft 247 kts 156°
2026-05-08 21:50 13.45635 77.44011 8326 ft 247 kts 156°
2026-05-08 21:50 13.44037 77.44641 8128 ft 246 kts 156°
2026-05-08 21:50 13.42438 77.45256 7899 ft 245 kts 160°
2026-05-08 21:51 13.40756 77.45584 7725 ft 248 kts 174°
2026-05-08 21:51 13.39033 77.45620 7502 ft 248 kts 176°
2026-05-08 21:51 13.37319 77.45664 7340 ft 243 kts 175°
2026-05-08 21:51 13.35662 77.45717 7281 ft 234 kts 175°
2026-05-08 21:52 13.34081 77.45743 7207 ft 227 kts 178°
2026-05-08 21:52 13.32519 77.45617 7138 ft 224 kts 185°
2026-05-08 21:52 13.30982 77.45385 7085 ft 222 kts 186°
2026-05-08 21:52 13.29463 77.45145 7029 ft 219 kts 186°
2026-05-08 21:53 13.27974 77.44911 6989 ft 214 kts 186°
2026-05-08 21:53 13.26511 77.44684 6994 ft 212 kts 185°
2026-05-08 21:53 13.25052 77.44461 6995 ft 212 kts 185°
2026-05-08 21:53 13.23587 77.44266 6992 ft 211 kts 177°
2026-05-08 21:54 13.22243 77.44647 6992 ft 202 kts 141°
2026-05-08 21:54 13.21366 77.45727 7000 ft 197 kts 111°
2026-05-08 21:54 13.20998 77.47069 6952 ft 196 kts 96°
2026-05-08 21:54 13.20892 77.48458 6744 ft 195 kts 90°
2026-05-08 21:55 13.20876 77.49834 6492 ft 192 kts 89°
2026-05-08 21:55 13.20863 77.51202 6245 ft 191 kts 89°
2026-05-08 21:55 13.20854 77.52566 5993 ft 190 kts 89°
2026-05-08 21:56 13.20865 77.55214 5458 ft 184 kts 91°
2026-05-08 21:56 13.20858 77.56505 5280 ft 176 kts 90°
2026-05-08 21:56 13.20852 77.57741 5147 ft 170 kts 90°
2026-05-08 21:56 13.20824 77.58922 5019 ft 162 kts 91°
2026-05-08 21:57 13.20794 77.60064 4736 ft 160 kts 92°
2026-05-08 21:57 13.20769 77.61182 4485 ft 151 kts 91°
2026-05-08 21:57 13.20753 77.62244 4255 ft 147 kts 91°
2026-05-08 21:57 13.20756 77.63293 4036 ft 148 kts 90°
2026-05-08 21:58 13.20768 77.64334 3889 ft 146 kts 90°
2026-05-08 21:58 13.20773 77.65397 3671 ft 152 kts 90°
2026-05-08 21:58 13.20758 77.66472 3479 ft 153 kts 91°
2026-05-08 21:58 13.20727 77.67569 3271 ft 155 kts 90°
2026-05-08 21:59 13.20717 77.68663 3055 ft 150 kts 89°
2026-05-08 21:59 13.20717 77.69637 3021 ft 112 kts 94°
2026-05-08 21:59 13.20712 77.70303 3016 ft 78 kts 87°
2026-05-08 21:59 13.20700 77.70672 3016 ft 29 kts 91°
2026-05-08 22:00 13.20692 77.70862 3016 ft 25 kts 107°
2026-05-08 22:00 13.20650 77.70968 3015 ft 13 kts 117°
2026-05-08 22:00 13.20603 77.71056 3016 ft 15 kts 120°
2026-05-08 22:00 13.20564 77.71121 3016 ft 10 kts 121°
2026-05-08 22:01 13.20530 77.71197 3016 ft 13 kts 103°
2026-05-08 22:01 13.20521 77.71294 3016 ft 14 kts 89°
2026-05-08 22:01 13.20525 77.71402 3016 ft 16 kts 89°
2026-05-08 22:01 13.20523 77.71520 3016 ft 17 kts 91°
2026-05-08 22:02 13.20521 77.71627 3017 ft 11 kts 91°
2026-05-08 22:02 13.20522 77.71706 3017 ft 9 kts 89°
2026-05-08 22:02 13.20507 77.71761 3017 ft 8 kts 140°
2026-05-08 22:02 13.20451 77.71774 3017 ft 11 kts 176°
2026-05-08 22:03 13.20364 77.71776 3016 ft 14 kts 180°
2026-05-08 22:03 13.20259 77.71775 3016 ft 12 kts 180°
2026-05-08 22:03 13.20191 77.71768 3016 ft 9 kts 213°
2026-05-08 22:03 13.20170 77.71703 3016 ft 12 kts 266°
2026-05-08 22:04 13.20167 77.71598 3016 ft 15 kts 269°
2026-05-08 22:04 13.20186 77.71511 3021 ft 14 kts 310°
2026-05-08 22:04 13.20244 77.71435 3016 ft 11 kts 294°
2026-05-08 22:04 13.20258 77.71365 3016 ft 12 kts 272°
2026-05-08 22:05 13.20259 77.71308 3016 ft 5 kts 271°
2026-05-08 22:05 13.20259 77.71259 3016 ft 6 kts 262°
2026-05-08 22:05 13.20247 77.71243 3018 ft 3 kts 206°
2026-05-08 22:05 13.20214 77.71237 3016 ft 8 kts 184°
2026-05-08 22:06 13.20182 77.71236 3016 ft 5 kts 180°
2026-05-08 22:06 13.20168 77.71236 3016 ft 0 kts 180°